Wind_Speed
5 5 5 4 3 3 3 2 2 2 2 2 2 2 2 2 2 2 2 2 3 3 4 4 4 5 5 6 6 6 7 7 7 8 8 7 7 7 7 7 7 7 7
5 6 5 5 4 3 3 3 3 3 2 2 2 3 3 3 3 4 3 3 3 4 4 5 5 5 6 6 7 7 8 8 8 8 9 9 8 8 8 8 8 8 8
5 6 6 5 5 4 4 4 4 4 3 3 3 4 4 5 4 4 4 5 5 5 5 6 6 6 6 7 8 8 8 9 9 9 9 9 9 9 9 9 9 9 9
6 6 6 6 6 5 5 5 5 4 4 4 4 5 5 5 5 5 6 6 6 6 6 6 6 7 7 8 9 9 9 9 9 9 10 10 10 11 10 10 10 10 9
6 6 6 5 5 5 5 5 5 5 5 4 5 6 6 6 6 6 6 6 7 7 7 7 7 7 7 8 9 9 9 9 9 10 10 11 11 11 11 11 10 10 10
7 6 6 6 5 5 4 4 5 5 5 5 5 6 6 6 6 6 6 7 7 7 7 7 7 7 8 8 9 9 9 10 10 10 11 11 11 11 11 11 11 10 10
8 7 7 7 6 5 5 5 5 5 5 5 6 6 7 7 7 7 7 7 7 7 7 7 7 7 7 8 9 9 9 10 11 11 11 11 11 11 12 12 11 11 10
8 8 7 6 5 5 5 5 4 4 5 6 6 7 7 6 7 7 6 6 6 6 7 7 7 7 7 8 9 9 9 10 11 11 12 12 11 11 12 11 11 10 10
8 8 7 6 5 5 5 5 4 4 5 5 6 6 6 6 6 6 6 5 6 6 6 7 7 8 8 8 9 10 10 10 10 10 11 12 12 12 12 12 10 10 10
8 7 8 6 5 5 4 5 5 5 4 5 5 5 6 5 5 5 5 5 6 6 7 7 7 8 8 8 8 9 10 10 10 10 10 11 11 11 12 11 11 10 10
8 8 8 7 6 5 5 5 5 5 5 5 5 5 5 5 5 6 6 6 6 7 7 7 8 8 8 9 8 9 9 9 10 9 10 10 11 11 11 11 11 10 10
9 8 8 7 6 5 5 4 4 4 4 5 5 5 5 5 6 6 6 6 7 7 7 7 7 8 8 8 8 8 8 8 9 9 9 10 10 10 10 10 10 9 9
9 8 8 7 6 5 4 3 3 4 3 4 4 4 5 5 6 6 6 6 7 7 7 7 7 7 7 7 7 7 7 7 7 8 9 10 10 10 10 10 9 9 9
9 8 7 6 5 3 3 2 3 3 3 3 4 4 5 5 5 6 6 6 6 6 6 6 6 7 6 6 6 6 6 6 6 7 8 9 9 9 9 9 9 9 9
8 7 6 6 4 2 2 2 3 3 2 3 4 4 5 5 6 6 6 7 7 6 6 6 6 5 5 5 5 5 5 6 6 6 7 8 9 9 9 9 9 9 8
8 7 5 4 4 3 2 3 3 2 2 2 4 4 5 5 6 6 6 7 7 6 6 5 4 4 3 3 3 4 4 5 5 5 6 7 8 8 8 8 8 8 8
9 7 6 5 4 3 2 2 2 1 2 3 4 5 5 5 5 6 6 7 7 7 6 5 4 4 3 2 1 2 2 4 4 4 5 6 7 7 7 7 7 7 7
10 8 6 5 4 3 2 1 1 1 2 3 4 5 5 5 5 6 7 7 7 7 7 5 5 4 4 3 2 1 1 2 3 3 4 4 5 6 7 7 6 6 6
10 9 7 6 4 3 2 1 1 1 2 3 4 5 5 6 6 6 7 7 7 7 7 6 5 5 4 4 3 3 2 1 2 2 3 3 4 5 6 6 6 6 6
10 9 8 7 5 3 2 1 0 1 2 3 4 5 5 6 6 7 7 7 7 7 7 6 6 5 4 4 4 3 2 2 1 2 2 2 3 5 5 5 5 4 5
11 10 9 7 6 4 3 2 1 1 1 2 4 5 5 6 6 7 8 7 7 7 7 6 6 5 4 4 4 3 3 2 2 2 2 2 3 4 4 3 3 3 3
13 11 9 8 6 5 4 3 2 1 1 2 3 4 5 6 7 7 7 7 7 7 7 6 6 6 5 4 4 3 3 3 2 2 2 2 2 3 3 3 2 2 2
14 12 10 9 8 6 5 4 3 2 1 1 2 3 5 6 7 7 7 7 7 7 7 7 6 6 5 5 4 4 4 4 3 2 2 2 2 2 2 2 1 1 1
14 12 10 9 8 7 6 5 4 3 1 0 1 2 4 5 6 7 7 7 7 7 7 7 6 6 5 5 5 4 4 4 3 3 2 2 2 1 1 1 1 0 1
14 13 10 10 9 8 7 6 5 4 2 1 1 2 3 4 5 6 7 7 7 7 7 7 6 6 6 5 5 4 4 4 4 3 3 2 2 1 1 1 0 1 1
15 13 12 10 10 8 7 7 6 5 4 2 1 1 2 3 5 5 6 7 7 6 6 6 6 7 6 6 5 5 4 4 3 3 3 2 2 2 1 0 1 1 2
Wind_Direction
240 239 235 232 243 246 245 270 275 286 315 326 333 330 337 327 295 301 293 286 281 263 253 253 259 255 252 247 244 241 239 242 240 238 236 236 236 236 235 235 233 231 228
242 238 229 226 234 241 249 266 273 281 301 313 324 323 324 324 310 299 293 285 284 272 264 260 264 266 261 256 249 247 245 246 244 242 240 240 242 242 240 240 236 234 233
236 231 228 231 236 245 260 275 284 282 285 296 306 311 312 314 307 295 291 288 285 278 272 267 269 272 268 263 257 252 248 247 247 245 242 241 241 242 241 239 239 239 238
235 232 236 240 242 252 263 273 278 282 289 291 301 303 308 310 310 298 294 291 287 283 276 279 276 274 271 267 260 256 250 248 249 246 243 241 241 241 240 239 239 239 239
241 239 242 243 246 253 257 270 274 278 283 292 297 299 307 312 311 301 294 289 284 283 283 285 283 279 276 271 262 258 251 249 250 249 244 242 241 239 237 238 240 241 243
245 245 245 245 254 258 262 276 279 283 289 299 297 296 301 305 305 301 294 287 285 284 285 287 286 282 276 272 267 260 254 253 250 247 246 243 242 239 238 237 238 242 245
248 247 250 250 255 257 270 280 292 295 300 305 303 300 301 302 306 306 298 294 289 285 286 286 286 282 275 270 266 261 256 255 252 249 247 244 241 239 238 235 236 240 245
247 248 249 252 256 259 270 275 283 295 301 304 308 306 308 306 307 306 300 296 290 286 285 284 284 281 275 269 264 262 259 255 253 250 247 243 241 239 236 235 235 238 243
244 246 241 247 258 262 268 281 283 297 307 310 311 311 314 317 317 313 307 301 296 291 289 288 285 281 277 270 264 262 259 255 252 248 246 241 238 238 234 235 237 237 240
243 244 240 241 251 262 274 292 290 295 308 320 319 321 322 324 321 317 313 307 303 297 293 290 287 284 280 273 267 264 260 255 250 247 244 240 237 235 233 234 235 237 240
243 243 243 246 250 256 270 287 297 302 308 322 325 324 328 332 330 325 317 310 307 303 296 292 290 286 282 276 273 268 261 253 247 243 243 240 234 231 231 233 234 236 238
242 244 244 252 260 261 272 292 310 318 316 321 323 326 334 335 331 327 323 315 308 305 300 295 294 288 282 278 276 270 259 250 245 239 240 237 231 229 231 233 232 236 241
239 243 248 251 251 263 278 301 318 326 326 327 331 336 341 342 339 338 334 325 315 308 302 299 298 292 286 280 277 270 259 248 244 240 238 234 229 229 232 231 231 236 241
240 243 243 242 247 261 273 295 319 328 330 334 343 347 344 344 346 344 343 337 326 316 309 306 302 299 293 285 278 269 257 245 240 238 237 232 229 229 231 229 230 234 238
242 244 238 234 238 254 282 313 326 335 343 342 348 349 346 347 347 346 348 344 337 331 326 321 316 313 304 291 277 268 256 243 236 235 235 233 229 228 230 226 228 233 235
236 237 238 234 242 255 284 317 328 341 358 359 359 356 355 351 350 350 349 352 351 347 342 341 339 339 327 305 285 274 252 236 228 229 230 228 222 225 224 225 225 230 234
227 223 228 233 240 251 278 311 330 2 22 12 8 3 3 360 356 358 359 360 359 1 359 0 4 8 358 346 321 279 242 227 217 217 224 218 214 217 218 221 222 226 235
223 219 222 227 231 243 258 290 341 46 33 19 16 10 7 7 5 5 7 7 7 9 10 11 16 23 25 33 55 81 161 190 204 205 214 210 205 210 215 219 224 229 236
218 216 217 218 222 228 240 240 330 64 44 30 23 16 18 19 17 14 12 10 13 17 19 21 25 34 41 54 73 84 99 124 168 192 206 198 199 207 212 218 223 232 239
217 214 210 209 208 215 226 218 340 66 48 40 31 27 28 26 22 18 17 16 20 23 25 29 36 44 59 65 68 75 78 86 151 173 186 175 191 193 201 212 223 236 245
217 214 209 207 205 209 218 214 227 103 61 48 40 37 35 29 24 22 21 22 24 28 30 33 42 49 61 64 65 68 73 77 112 143 139 143 168 190 189 199 220 239 239
218 212 208 207 206 207 206 208 189 153 97 56 45 40 36 32 28 23 27 27 28 32 34 39 48 54 59 61 64 63 59 72 104 124 132 146 166 172 177 184 203 230 228
217 212 207 208 208 209 204 206 196 184 150 68 47 38 33 32 30 29 31 32 35 36 39 42 48 56 61 60 61 65 72 81 83 99 130 145 159 164 160 166 155 196 244
212 207 207 210 208 208 206 208 202 200 198 131 62 39 32 34 37 34 35 39 42 43 45 48 49 53 57 60 65 65 68 74 75 76 97 117 119 148 172 187 179 40 291
210 209 211 212 211 209 208 208 202 206 204 178 109 46 37 39 40 40 43 47 50 49 48 50 54 57 58 61 66 66 67 71 71 74 78 88 85 119 147 176 291 327 330
210 211 211 209 207 207 208 210 205 205 205 196 174 87 52 45 45 44 46 50 53 52 50 54 58 60 59 63 64 65 67 70 70 69 68 66 65 71 54 66 343 329 330
Height
5889 5889 5890 5890 5890 5890 5890 5890 5890 5890 5890 5889 5889 5889 5888 5888 5888 5888 5888 5888 5888 5888 5888 5888 5889 5889 5889 5889 5889 5890 5890 5891 5891 5892 5892 5893 5894 5895 5895 5896 5897 5897 5898
5888 5889 5889 5889 5890 5890 5890 5890 5890 5889 5889 5889 5889 5888 5888 5888 5888 5887 5887 5887 5887 5887 5887 5888 5888 5888 5888 5888 5888 5889 5889 5889 5890 5890 5891 5892 5893 5894 5894 5895 5896 5896 5897
5888 5888 5888 5889 5889 5889 5889 5889 5889 5889 5888 5888 5888 5887 5887 5887 5887 5886 5886 5886 5886 5886 5886 5886 5887 5887 5887 5887 5887 5887 5888 5888 5888 5889 5890 5890 5891 5892 5893 5894 5895 5895 5896
5888 5888 5888 5888 5888 5888 5888 5888 5888 5888 5887 5887 5887 5887 5886 5886 5885 5885 5885 5885 5885 5885 5885 5885 5885 5885 5886 5885 5886 5886 5886 5887 5887 5887 5888 5889 5890 5891 5892 5893 5893 5894 5895
5887 5887 5887 5887 5888 5888 5887 5887 5887 5887 5887 5886 5886 5885 5885 5884 5884 5884 5884 5884 5884 5884 5884 5884 5884 5884 5884 5884 5884 5884 5884 5885 5885 5886 5886 5887 5888 5889 5890 5891 5892 5893 5893
5886 5886 5887 5887 5887 5887 5887 5886 5886 5886 5885 5885 5885 5884 5884 5883 5883 5882 5882 5882 5882 5882 5882 5882 5882 5882 5882 5882 5882 5882 5882 5883 5884 5884 5885 5885 5886 5887 5889 5889 5891 5891 5892
5885 5886 5886 5886 5886 5886 5886 5886 5885 5885 5885 5884 5884 5883 5882 5882 5881 5881 5881 5880 5880 5880 5880 5880 5880 5880 5880 5880 5880 5880 5881 5881 5882 5882 5883 5884 5885 5886 5887 5888 5889 5890 5891
5884 5884 5885 5885 5885 5885 5885 5885 5884 5884 5884 5883 5883 5882 5881 5881 5880 5879 5879 5879 5878 5878 5878 5878 5879 5878 5878 5878 5878 5878 5879 5879 5880 5880 5881 5882 5883 5884 5885 5886 5888 5889 5890
5883 5883 5884 5884 5884 5884 5884 5884 5883 5883 5883 5882 5881 5881 5880 5879 5879 5878 5878 5877 5877 5877 5877 5877 5877 5876 5876 5876 5876 5876 5876 5877 5877 5878 5879 5880 5881 5882 5884 5885 5886 5887 5888
5882 5882 5883 5883 5883 5883 5883 5883 5882 5882 5882 5881 5881 5880 5879 5878 5878 5877 5877 5876 5876 5875 5875 5875 5875 5875 5874 5874 5874 5874 5874 5875 5875 5876 5877 5878 5879 5880 5882 5883 5885 5886 5887
5881 5881 5882 5882 5882 5882 5882 5882 5881 5881 5881 5881 5880 5879 5878 5878 5877 5876 5876 5875 5875 5874 5873 5873 5873 5872 5872 5872 5872 5872 5872 5873 5874 5874 5875 5876 5877 5879 5880 5882 5883 5884 5885
5879 5880 5880 5881 5881 5881 5881 5881 5881 5881 5880 5880 5879 5878 5878 5877 5876 5875 5875 5874 5873 5872 5872 5871 5871 5870 5870 5870 5870 5870 5870 5871 5872 5873 5873 5875 5876 5877 5879 5880 5882 5883 5884
5878 5879 5879 5880 5880 5880 5881 5881 5881 5880 5880 5879 5879 5878 5877 5876 5875 5874 5873 5873 5872 5871 5870 5870 5869 5868 5868 5868 5868 5868 5868 5869 5870 5871 5872 5873 5874 5876 5877 5879 5880 5882 5883
5877 5878 5878 5879 5879 5880 5880 5880 5880 5879 5879 5879 5878 5877 5876 5876 5875 5874 5873 5872 5870 5869 5869 5868 5867 5867 5866 5866 5866 5866 5867 5867 5868 5869 5870 5872 5873 5875 5876 5877 5879 5880 5881
5876 5877 5877 5878 5879 5879 5879 5880 5879 5879 5879 5878 5877 5876 5876 5875 5874 5873 5872 5871 5869 5868 5867 5867 5866 5865 5865 5865 5865 5865 5865 5866 5867 5868 5869 5870 5872 5873 5875 5876 5878 5879 5880
5875 5876 5877 5878 5879 5879 5879 5879 5879 5879 5878 5878 5877 5876 5875 5874 5873 5872 5871 5870 5869 5868 5867 5866 5865 5865 5864 5864 5864 5864 5864 5865 5866 5867 5868 5869 5870 5872 5874 5875 5877 5878 5879
5874 5875 5876 5877 5878 5879 5879 5879 5879 5878 5878 5877 5877 5876 5875 5874 5873 5872 5871 5870 5869 5867 5866 5866 5865 5864 5864 5863 5863 5863 5864 5865 5866 5867 5867 5868 5870 5871 5873 5874 5876 5877 5878
5873 5874 5875 5877 5878 5878 5878 5879 5879 5878 5878 5877 5877 5876 5875 5874 5873 5872 5871 5870 5869 5867 5866 5866 5865 5864 5864 5863 5863 5864 5864 5865 5866 5866 5867 5868 5869 5871 5872 5874 5875 5876 5877
5871 5873 5874 5876 5877 5878 5878 5878 5879 5878 5878 5877 5877 5876 5875 5874 5873 5872 5871 5870 5869 5868 5867 5866 5865 5865 5864 5864 5864 5864 5865 5865 5866 5867 5867 5868 5869 5870 5872 5873 5875 5876 5877
5870 5872 5874 5875 5876 5877 5878 5878 5879 5879 5878 5878 5877 5876 5875 5875 5874 5872 5871 5870 5869 5869 5868 5867 5866 5865 5865 5865 5865 5865 5866 5866 5866 5867 5868 5868 5869 5871 5872 5873 5875 5875 5876
5869 5870 5872 5874 5875 5877 5878 5878 5879 5879 5878 5878 5878 5877 5876 5875 5874 5873 5872 5871 5870 5869 5868 5867 5867 5866 5866 5866 5866 5867 5867 5867 5867 5868 5868 5869 5870 5871 5872 5873 5875 5875 5876
5867 5869 5871 5873 5874 5876 5877 5878 5878 5879 5879 5878 5878 5877 5877 5876 5875 5874 5873 5872 5871 5870 5869 5868 5868 5867 5867 5867 5867 5868 5868 5868 5868 5869 5869 5870 5871 5871 5872 5874 5875 5875 5876
5865 5867 5870 5872 5873 5875 5876 5877 5878 5878 5879 5879 5879 5878 5878 5877 5876 5875 5874 5873 5872 5871 5870 5869 5869 5868 5868 5868 5868 5869 5869 5869 5869 5870 5870 5871 5872 5873 5873 5874 5875 5875 5876
5864 5866 5868 5870 5872 5874 5875 5877 5878 5878 5879 5879 5879 5879 5878 5877 5876 5876 5875 5874 5872 5872 5871 5871 5870 5870 5870 5869 5869 5870 5870 5871 5871 5871 5872 5872 5872 5873 5874 5875 5875 5876 5876
5862 5865 5867 5869 5871 5873 5875 5876 5877 5878 5879 5879 5879 5880 5879 5878 5877 5877 5876 5875 5874 5873 5873 5872 5872 5871 5871 5871 5871 5871 5871 5872 5872 5872 5873 5873 5873 5874 5874 5875 5875 5876 5876
5860 5863 5866 5868 5870 5872 5874 5875 5877 5878 5879 5879 5880 5880 5880 5879 5879 5878 5877 5876 5875 5875 5874 5874 5873 5873 5872 5872 5872 5872 5872 5873 5873 5873 5873 5874 5874 5874 5874 5875 5875 5875 5876